Content
SEND FEEDBACK

Daily
Averages
Monthly
Summary
United States of America

WASHINGTON, INDIANA


Home > North America > United States > Indiana
Elevation: 549 feet     Latitude: 38 40N     Longitude: 087 10W

WEATHER
 
SELECT A DAY
Number of Records: 433,656;   Date Range: 1/1/95 - 10/24/14
 
SHARE

PRINT THIS DATA

[ ← Previous Day ]
WEATHER ALMANAC - JANUARY 31, 2013
[ Next Day → ]
[ °C ]   °F
Weather ElementAverageHighLow
Temperature29 °F33.8 °F (1:55 pm)17.6 °F (10:35 pm)
Dewpoint18 °F26.6 °F (7:15 pm)8.6 °F (9:55 pm)
Humidity63.9 %86 % (7:15 pm)55 % (12:55 pm)
Barometer29.99 in30.22 in (11:35 pm)29.83 in (12:35 am)
Wind Speed19.9 mph29.9 mph (1:55 am)
Wind Gust36.8 mph (12:35 am)
Weather ElementAverage
Visibility9.5 mi
Wind DirectionW (269.3 °)

Weather ElementTotal
Precipitation---
Heating Degree Days39.3 (Base 65)
Averaged from 60 records on January 31, 2013
WEATHER CONDITIONS BREAKOUT
WIND DIRECTION BREAKOUT
WEATHER BY HOUR - JANUARY 31, 2013
[ °C ]   °F
Local TimeTemperatureDewpointHumidityBarometerVisibilityWind DirectionWind SpeedGust SpeedPrecipitationEventsConditions
12:35 AM30.2 °F19.4 °F64 %29.83 in10.0 miWNW (290°)27.6 mph36.8 mphOvercast
12:55 AM30.2 °F17.6 °F60 %29.84 in10.0 miWest (280°)21.9 mph29.9 mphOvercast
1:15 AM30.2 °F19.4 °F64 %29.85 in10.0 miWest (270°)20.7 mph25.3 mphOvercast
1:35 AM30.2 °F19.4 °F64 %29.86 in10.0 miWest (270°)24.2 mph32.2 mphOvercast
1:55 AM30.2 °F17.6 °F60 %29.87 in10.0 miWest (280°)29.9 mph36.8 mphOvercast
2:15 AM30.2 °F17.6 °F60 %29.88 in10.0 miWest (280°)20.7 mph28.8 mphOvercast
2:35 AM30.2 °F17.6 °F60 %29.88 in10.0 miWest (280°)18.4 mph25.3 mphOvercast
2:55 AM30.2 °F19.4 °F64 %29.89 in10.0 miWest (270°)20.7 mph25.3 mphOvercast
3:15 AM30.2 °F19.4 °F64 %29.89 in10.0 miWest (270°)25.3 mph34.5 mphOvercast
3:35 AM28.4 °F17.6 °F64 %29.90 in10.0 miWest (270°)21.9 mph28.8 mphOvercast
4:15 AM28.4 °F17.6 °F64 %29.89 in10.0 miWest (270°)26.5 mph33.4 mphOvercast
4:35 AM28.4 °F17.6 °F64 %29.90 in10.0 miWest (280°)26.5 mph34.5 mphOvercast
4:55 AM28.4 °F17.6 °F64 %29.91 in10.0 miWest (280°)29.9 mph34.5 mphOvercast
5:15 AM28.4 °F15.8 °F59 %29.91 in10.0 miWest (280°)26.5 mph34.5 mphOvercast
5:35 AM28.4 °F15.8 °F59 %29.92 in10.0 miWest (270°)24.2 mph31.1 mphOvercast
5:55 AM28.4 °F15.8 °F59 %29.93 in10.0 miWest (280°)20.7 mphOvercast
6:15 AM28.4 °F17.6 °F64 %29.93 in10.0 miWest (280°)19.6 mph25.3 mphOvercast
6:35 AM28.4 °F17.6 °F64 %29.94 in10.0 miWest (270°)17.3 mph20.7 mphOvercast
6:55 AM28.4 °F17.6 °F64 %29.95 in10.0 miWest (280°)21.9 mph27.6 mphMostly Cloudy
7:15 AM26.6 °F17.6 °F69 %29.95 in10.0 miWest (280°)19.6 mphMostly Cloudy
7:55 AM26.6 °F15.8 °F64 %29.96 in10.0 miWest (270°)16.1 mph26.5 mphOvercast
8:15 AM28.4 °F15.8 °F59 %29.97 in10.0 miWest (260°)17.3 mphOvercast
8:35 AM28.4 °F15.8 °F59 %29.98 in10.0 miWest (270°)13.8 mphMostly Cloudy
8:55 AM28.4 °F17.6 °F64 %29.99 in10.0 miWest (270°)16.1 mph20.7 mphOvercast
9:15 AM28.4 °F17.6 °F64 %30.00 in10.0 miWSW (250°)15.0 mphOvercast
9:35 AM28.4 °F17.6 °F64 %30.00 in10.0 miWSW (250°)15.0 mph20.7 mphMostly Cloudy
9:55 AM28.4 °F17.6 °F64 %30.01 in10.0 miWSW (240°)12.7 mphScattered Clouds
10:35 AM28.4 °F19.4 °F69 %30.02 in9.0 miSW (230°)11.5 mphMostly Cloudy
10:55 AM28.4 °F21.2 °F74 %30.02 in10.0 miSW (220°)12.7 mph18.4 mphMostly Cloudy
11:15 AM30.2 °F19.4 °F64 %30.02 in10.0 miWSW (240°)17.3 mphMostly Cloudy
11:35 AM30.2 °F17.6 °F60 %30.04 in10.0 miWest (260°)21.9 mph25.3 mphOvercast
11:55 AM30.2 °F17.6 °F60 %30.04 in10.0 miWSW (250°)17.3 mph26.5 mphOvercast
12:15 PM30.2 °F17.6 °F60 %30.03 in10.0 miWSW (250°)17.3 mph26.5 mphOvercast
12:55 PM32.0 °F17.6 °F55 %30.02 in10.0 miWest (260°)21.9 mph26.5 mphOvercast
1:15 PM32.0 °F19.4 °F60 %30.02 in10.0 miWSW (250°)24.2 mph27.6 mphOvercast
1:35 PM32.0 °F19.4 °F60 %30.01 in10.0 miWest (260°)21.9 mph27.6 mphOvercast
1:55 PM33.8 °F19.4 °F56 %30.00 in10.0 miWSW (250°)20.7 mph26.5 mphMostly Cloudy
2:15 PM33.8 °F19.4 °F56 %30.00 in10.0 miWSW (250°)17.3 mph24.2 mphOvercast
2:35 PM33.8 °F21.2 °F60 %29.99 in10.0 miWSW (240°)18.4 mph24.2 mphMostly Cloudy
3:15 PM33.8 °F21.2 °F60 %29.98 in10.0 miWest (260°)18.4 mph23.0 mphOvercast
3:35 PM33.8 °F19.4 °F56 %29.99 in10.0 miWSW (250°)19.6 mph25.3 mphOvercast
3:55 PM33.8 °F19.4 °F56 %29.98 in10.0 miWest (260°)24.2 mph29.9 mphOvercast
4:15 PM33.8 °F19.4 °F56 %29.99 in10.0 miWest (280°)17.3 mph31.1 mphMostly Cloudy
4:35 PM33.8 °F21.2 °F60 %29.99 in10.0 miWest (260°)18.4 mph25.3 mphMostly Cloudy
4:55 PM33.8 °F21.2 °F60 %29.99 in10.0 miWest (260°)15.0 mphMostly Cloudy
5:15 PM33.8 °F21.2 °F60 %29.99 in10.0 miWest (270°)17.3 mph24.2 mphMostly Cloudy
5:35 PM33.8 °F21.2 °F60 %30.00 in10.0 miWest (260°)18.4 mph23.0 mphMostly Cloudy
5:55 PM33.8 °F21.2 °F60 %30.00 in10.0 miWest (260°)21.9 mph27.6 mphScattered Clouds
6:15 PM32.0 °F23.0 °F69 %30.00 in10.0 miWest (260°)17.3 mphScattered Clouds
6:35 PM30.2 °F24.8 °F80 %30.00 in5.0 miWest (270°)16.1 mphOvercast
7:15 PM30.2 °F26.6 °F86 %30.01 in2.0 miWSW (250°)13.8 mphOvercast
7:35 PM30.2 °F26.6 °F86 %30.01 in3.0 miWest (260°)15.0 mph20.7 mphOvercast
8:15 PM26.6 °F21.2 °F80 %30.04 in2.0 miNW (310°)23.0 mph33.4 mphOvercast
9:15 PM21.2 °F15.8 °F80 %30.11 in9.0 miWNW (300°)20.7 mph33.4 mphMostly Cloudy
9:35 PM21.2 °F12.2 °F68 %30.12 in10.0 miWNW (300°)17.3 mph24.2 mphMostly Cloudy
9:55 PM19.4 °F8.6 °F63 %30.14 in10.0 miNW (310°)26.5 mph33.4 mphMostly Cloudy
10:15 PM19.4 °F8.6 °F63 %30.16 in10.0 miNW (310°)19.6 mph31.1 mphPartly Cloudy
10:35 PM17.6 °F8.6 °F68 %30.18 in10.0 miNW (320°)21.9 mph27.6 mphPartly Cloudy
11:15 PM17.6 °F8.6 °F68 %30.20 in9.0 miNW (310°)18.4 mph21.9 mphMostly Cloudy
11:35 PM17.6 °F8.6 °F68 %30.22 in10.0 miWNW (300°)21.9 mph27.6 mphOvercast
Hourly data recorded from KHNB, located miles away from Washington, Indiana







STORIES FROM OUR PARTNERS